Location: *
(45.9500°N, 9.0833°E)
Time: 14:51:40
(UTC+00:00)

HJ-1C - Pass Details

Date: 03 March 2021
Orbit: 428 x 440 km, 97.1° (Epoch: 15 April)

Event Time Altitude Azimuth Distance (km) Brightness Sun altitude
Rises 18:31:13 0° 175° (S) 2,414 7.0 -14.4°
Reaches altitude 10° 18:33:15 10° 180° (S) 1,549 6.1 -14.7°
Maximum altitude 18:36:31 57° 259° (W) 522 4.0 -15.3°
Drops below altitude 10° 18:39:48 10° 340° (NNW) 1,556 6.5 -15.8°
Sets 18:41:51 0° 344° (NNW) 2,427 7.4 -16.2°
